Tracking 19720 objects as of 26-Jun-2019
HD Live streaming from Space Station
objects crossing your sky now

FENGYUN 1C DEB

Track FENGYUN 1C DEB now!
10-day predictions


NORAD ID: 32103
Int'l Code: 1999-025CQV
Perigee: 623.3 km
Apogee: 734.8 km
Inclination: 96.7 °
Period: 98.2 minutes
Semi major axis: 7050 km
RCS: 0.0063 m2 (small)
Launch date: May 10, 1999
Source: People's Republic of China (PRC)
Launch site: Taiyaun Space Center, China (TSC)

Note: This is SATELLITE DEBRIS
aabbcc
Your satellite tracking list
Your tracking list is empty




NASA's NSSDC Master Catalog

Two Line Element Set (TLE):
1 32103U 99025CQV 19175.32249021  .00001437  00000-0  25335-3 0  9996
2 32103  96.7023   0.9722 0079078  94.6931  28.5448 14.66596020641529
Source of the keplerian elements: AFSPC